Other Surface Observations
Issued by NWS Charleston, SC

Home | Current Version | Previous Version | Text Only | Print | Product List | Glossary On
Versions: 1 2 3 4 5 6 7 8 9 10 11 12 13 14 15 16 17 18 19 20 21 22 23 24 25 26 27 28 29 30 31 32 33 34 35 36 37 38 39 40 41 42 43 44 45 46 47 48 49 50
000
SXUS52 KCHS 210710
OSOCHS

MARINE OBSERVATIONS
NATIONAL WEATHER SERVICE CHARLESTON SC
300 AM EDT THU AUG 21 2014

...DOWNTOWN CHARLESTON AND HARBOR...

CITY           SKY/WX    TMP DP  RH WIND       PRES   REMARKS
WATERFRONT PRK   N/A     82 N/A N/A W5          N/A
FORT JOHNSON   NOT AVBL

...LAKE MOULTRIE...

CITY           SKY/WX    TMP DP  RH WIND       PRES   REMARKS
PINOPOLIS        N/A     82  73  74 W7        29.93F

...LAKE AND SUPPLEMENTAL COASTAL OBSERVATIONS...

STATION/POSITION TIME  TEMP    WIND        PRES    WAVE   SWELL
                       AIR SEA DIR/SP/G            HT/PER HT/PER/DIR
                 (UTC) (F)     (DEG/KT/KT) (MB)    (FT/S) (FT/S/D)
FORT PULASKI     0700   79     240/  4/  6 1017.4R
SAPELO ISLAND    0600   80     260/  4     1018.0S
UPR LAKE MARION  NOT AVBL
WINYAH BAY       0600   79        CALM     1016.0S
LAKE MURRAY      0600   80     260/  3/  4 1015.9F
ACE BASIN NERRS  0600   79        CALM     1017.0S


...C-MAN AND BUOY OBSERVATIONS...

STATION/POSITION TIME  TEMP    WIND        PRES    WAVE   SWELL
                       AIR SEA DIR/SP/G            HT/PER HT/PER/DIR
                 (UTC) (F)     (DEG/KT/KT) (MB)    (FT/S) (FT/S/D)
BUOY 41004       0700   83 84  230/ 10/ 12 1015.6F   2/ 4   2/ 8
BUOY 41008       0700   84 85  300/ 10/ 12 1017.2F   2/ 4   2/120/ 7
FOLLY BEACH CMAN 0600   80     280/  2/  3 1017.2F
CAPERS NS BUOY   NOT AVBL
FRIPP NS BUOY    NOT AVBL
5E ST. MARYS GA  0700      82                N/A     2/ 8
FRYING PAN BUOY  NOT AVBL
BUOY 41025       0700   78     260/  4/  6 1016.0F   3/ 8   3/ 70/ 8
CAPE LOOKOUT NC  0600   80     220/  3/  4 1016.2F
BUOY 41002       0602   81 81  250/ 14/ 16 1018.1F   3/ 7   2/260/ 7
BUOY 41010       0700   84 85  200/ 12/ 16 1018.4F   2/ 4   2/110/ 9
BUOY 41012       NOT AVBL
ST AUGUSTINE FL  0700   77     260/  4/  5 1018.9F


$$



USA.gov is the U.S. government's official web portal to all federal, state and local government web resources and services.